CSN5055 ZGGG-AYPY

Flight info

Callsign CSN5055
Flight time 6h 29m
Altitude 33000
Route SAREX9 SAREX W6 NLG W18 TAMOT B330 BIGEX A461 AVMUP W16 TATIL/N0465F350 W16 MIA B462 BIK/N0459F370 B462 KIBAV H791 EPKED H778 SAKTO SAKTO1
Aircraft B38M/M-SDE1FGHILORVWXY/HB1

Departure

Time 2026-04-28 15:25
Airport Guangzhou Baiyun International Airport (ZGGG)

Arrival

Time 2026-04-28 21:54
Airport Port Moresby Jacksons International Airport (AYPY)
Time Latitude Longitude Altitude Speed Heading
2026-04-28 14:50 23.39081 113.30355 -60 ft 0 kts 16°
2026-04-28 15:15 23.39070 113.30352 51 ft 1 kts 16°
2026-04-28 15:15 23.39039 113.30338 50 ft 4 kts 35°
2026-04-28 15:15 23.39020 113.30318 51 ft 4 kts 56°
2026-04-28 15:16 23.39013 113.30304 53 ft 1 kts 64°
2026-04-28 15:16 23.39012 113.30302 53 ft 0 kts 64°
2026-04-28 15:19 23.39013 113.30307 53 ft 2 kts 75°
2026-04-28 15:19 23.39008 113.30345 55 ft 8 kts 105°
2026-04-28 15:20 23.38989 113.30425 53 ft 15 kts 103°
2026-04-28 15:20 23.38963 113.30549 53 ft 18 kts 103°
2026-04-28 15:20 23.38927 113.30672 55 ft 15 kts 124°
2026-04-28 15:20 23.38835 113.30675 56 ft 14 kts 194°
2026-04-28 15:21 23.38729 113.30645 52 ft 18 kts 194°
2026-04-28 15:21 23.38580 113.30605 53 ft 26 kts 194°
2026-04-28 15:21 23.38396 113.30555 55 ft 28 kts 194°
2026-04-28 15:21 23.38205 113.30505 52 ft 28 kts 194°
2026-04-28 15:22 23.38014 113.30454 50 ft 28 kts 193°
2026-04-28 15:22 23.37823 113.30403 49 ft 28 kts 194°
2026-04-28 15:22 23.37671 113.30363 53 ft 13 kts 192°
2026-04-28 15:22 23.37606 113.30403 52 ft 10 kts 107°
2026-04-28 15:23 23.37605 113.30408 54 ft 0 kts 102°
2026-04-28 15:23 23.37605 113.30409 54 ft 2 kts 102°
2026-04-28 15:23 23.37594 113.30461 54 ft 12 kts 103°
2026-04-28 15:23 23.37624 113.30555 58 ft 17 kts 17°
2026-04-28 15:24 23.37838 113.30612 53 ft 61 kts 14°
2026-04-28 15:24 23.38473 113.30783 54 ft 125 kts 14°
2026-04-28 15:24 23.39504 113.31061 71 ft 174 kts 14°
2026-04-28 15:24 23.40713 113.31372 566 ft 185 kts 14°
2026-04-28 15:25 23.42019 113.31740 1041 ft 203 kts 17°
2026-04-28 15:25 23.43364 113.32164 1751 ft 202 kts 21°
2026-04-28 15:25 23.44777 113.32686 2061 ft 226 kts 15°
2026-04-28 15:25 23.46397 113.33135 2363 ft 254 kts 15°
2026-04-28 15:26 23.48159 113.33632 3019 ft 263 kts 14°
2026-04-28 15:26 23.49929 113.34140 3865 ft 266 kts 14°
2026-04-28 15:26 23.51735 113.34667 4689 ft 269 kts 13°
2026-04-28 15:26 23.53553 113.35203 5475 ft 272 kts 13°
2026-04-28 15:27 23.55376 113.35742 6294 ft 273 kts 12°
2026-04-28 15:27 23.57241 113.36140 7032 ft 274 kts
2026-04-28 15:27 23.59144 113.36478 7692 ft 281 kts 359°
2026-04-28 15:27 23.61088 113.36129 8090 ft 289 kts 331°
2026-04-28 15:28 23.62641 113.34808 8771 ft 280 kts 302°
2026-04-28 15:28 23.63485 113.32924 9499 ft 278 kts 280°
2026-04-28 15:28 23.63838 113.30856 10206 ft 280 kts 277°
2026-04-28 15:28 23.64183 113.28696 10538 ft 299 kts 277°
2026-04-28 15:29 23.64529 113.26392 10805 ft 318 kts 276°
2026-04-28 15:29 23.64881 113.23956 11186 ft 331 kts 276°
2026-04-28 15:29 23.65231 113.21472 11853 ft 332 kts 276°
2026-04-28 15:29 23.65548 113.18965 12484 ft 335 kts 270°
2026-04-28 15:30 23.65258 113.16472 13120 ft 333 kts 250°
2026-04-28 15:30 23.64159 113.14248 13672 ft 336 kts 231°
2026-04-28 15:30 23.62531 113.12399 14226 ft 339 kts 226°
2026-04-28 15:30 23.60842 113.10584 14738 ft 342 kts 225°
2026-04-28 15:31 23.58956 113.09000 15260 ft 347 kts 209°
2026-04-28 15:31 23.56653 113.08147 15783 ft 355 kts 192°
2026-04-28 15:31 23.54171 113.08005 16291 ft 360 kts 185°
2026-04-28 15:31 23.51648 113.07971 16759 ft 364 kts 184°
2026-04-28 15:32 23.49114 113.07957 17252 ft 366 kts 184°
2026-04-28 15:32 23.46553 113.07957 17720 ft 369 kts 184°
2026-04-28 15:32 23.43973 113.07965 18178 ft 372 kts 184°
2026-04-28 15:32 23.41379 113.07977 18579 ft 374 kts 184°
2026-04-28 15:33 23.38767 113.07991 18975 ft 376 kts 184°
2026-04-28 15:33 23.36142 113.08006 19363 ft 379 kts 184°
2026-04-28 15:33 23.33501 113.08020 19757 ft 381 kts 184°
2026-04-28 15:33 23.30842 113.08035 20132 ft 383 kts 184°
2026-04-28 15:34 23.28203 113.08052 20506 ft 386 kts 182°
2026-04-28 15:34 23.25531 113.08529 20877 ft 395 kts 165°
2026-04-28 15:34 23.22957 113.09620 21255 ft 399 kts 162°
2026-04-28 15:34 23.20369 113.10756 21590 ft 402 kts 162°
2026-04-28 15:35 23.17778 113.11913 21954 ft 404 kts 162°
2026-04-28 15:35 23.12550 113.14280 22648 ft 409 kts 161°
2026-04-28 15:35 23.09918 113.15477 22992 ft 412 kts 161°
2026-04-28 15:36 23.07262 113.16684 23326 ft 414 kts 161°
2026-04-28 15:36 23.04635 113.17995 23611 ft 420 kts 152°
2026-04-28 15:36 23.02337 113.19985 23935 ft 428 kts 136°
2026-04-28 15:36 23.00577 113.22624 24210 ft 437 kts 122°
2026-04-28 15:37 22.99129 113.25534 24475 ft 439 kts 122°
2026-04-28 15:37 22.97689 113.28467 24741 ft 442 kts 121°
2026-04-28 15:37 22.96259 113.31420 25021 ft 444 kts 121°
2026-04-28 15:37 22.94833 113.34393 25292 ft 446 kts 121°
2026-04-28 15:38 22.93401 113.37388 25565 ft 447 kts 121°
2026-04-28 15:38 22.91964 113.40394 25830 ft 449 kts 121°
2026-04-28 15:38 22.90482 113.43379 26082 ft 449 kts 127°
2026-04-28 15:38 22.88502 113.45954 26321 ft 442 kts 143°
2026-04-28 15:39 22.86029 113.47883 26501 ft 437 kts 157°
2026-04-28 15:39 22.83217 113.49068 26707 ft 431 kts 169°
2026-04-28 15:39 22.80315 113.49905 26936 ft 433 kts 171°
2026-04-28 15:39 22.77384 113.50662 27182 ft 434 kts 172°
2026-04-28 15:40 22.74431 113.51372 27442 ft 435 kts 172°
2026-04-28 15:40 22.71461 113.52063 27681 ft 437 kts 173°
2026-04-28 15:40 22.68484 113.52739 27927 ft 438 kts 173°
2026-04-28 15:40 22.65498 113.53410 28163 ft 440 kts 173°
2026-04-28 15:41 22.62494 113.54083 28398 ft 441 kts 173°
2026-04-28 15:41 22.59518 113.54748 28622 ft 443 kts 173°
2026-04-28 15:41 22.56532 113.55611 28846 ft 450 kts 162°
2026-04-28 15:41 22.53772 113.57257 29124 ft 458 kts 147°
2026-04-28 15:42 22.51450 113.59654 29334 ft 469 kts 132°
2026-04-28 15:42 22.49618 113.62599 29569 ft 473 kts 126°
2026-04-28 15:42 22.47850 113.65617 29734 ft 476 kts 126°
2026-04-28 15:42 22.46094 113.68657 29951 ft 477 kts 126°
2026-04-28 15:43 22.44346 113.71716 30129 ft 479 kts 126°
2026-04-28 15:43 22.42602 113.74779 30313 ft 480 kts 125°
2026-04-28 15:43 22.40852 113.77855 30501 ft 481 kts 125°
2026-04-28 15:43 22.39096 113.80939 30685 ft 482 kts 125°
2026-04-28 15:44 22.37337 113.84028 30858 ft 483 kts 125°
2026-04-28 15:44 22.35483 113.87041 31011 ft 480 kts 134°
2026-04-28 15:44 22.33238 113.89693 31164 ft 479 kts 136°
2026-04-28 15:44 22.30988 113.92364 31304 ft 481 kts 136°
2026-04-28 15:45 22.28727 113.95035 31467 ft 482 kts 136°
2026-04-28 15:45 22.26459 113.97707 31638 ft 483 kts 136°
2026-04-28 15:45 22.24189 114.00379 31834 ft 483 kts 136°
2026-04-28 15:45 22.21931 114.03063 32056 ft 483 kts 135°
2026-04-28 15:46 22.19711 114.05785 32298 ft 483 kts 135°
2026-04-28 15:46 22.17487 114.08501 32513 ft 482 kts 135°
2026-04-28 15:46 22.15270 114.11202 32743 ft 481 kts 135°
2026-04-28 15:46 22.13046 114.13909 32906 ft 482 kts 135°
2026-04-28 15:47 22.08596 114.19323 32916 ft 481 kts 135°
2026-04-28 15:47 22.04156 114.24719 32917 ft 481 kts 135°
2026-04-28 15:48 21.99709 114.30117 32921 ft 482 kts 135°
2026-04-28 15:48 21.95281 114.35488 32922 ft 483 kts 135°
2026-04-28 15:49 21.90818 114.40894 32928 ft 483 kts 135°
2026-04-28 15:49 21.86316 114.46342 32928 ft 484 kts 135°
2026-04-28 15:50 21.81832 114.51764 32928 ft 485 kts 135°
2026-04-28 15:50 21.77377 114.57144 32927 ft 485 kts 135°
2026-04-28 15:51 21.72885 114.62565 32927 ft 486 kts 135°
2026-04-28 15:51 21.68387 114.67986 32925 ft 486 kts 135°
2026-04-28 15:52 21.63883 114.73409 32927 ft 486 kts 135°
2026-04-28 15:52 21.59371 114.78836 32928 ft 487 kts 135°
2026-04-28 15:53 21.54860 114.84257 32925 ft 487 kts 135°
2026-04-28 15:53 21.50336 114.89688 32929 ft 488 kts 135°
2026-04-28 15:54 21.45813 114.95112 32930 ft 488 kts 135°
2026-04-28 15:54 21.41280 115.00543 32931 ft 488 kts 135°
2026-04-28 15:55 21.36745 115.05971 32930 ft 488 kts 135°
2026-04-28 15:55 21.32205 115.11399 32929 ft 489 kts 135°
2026-04-28 15:56 21.27693 115.16788 32932 ft 489 kts 135°
2026-04-28 15:56 21.23142 115.22219 32931 ft 490 kts 135°
2026-04-28 15:57 21.18590 115.27644 32932 ft 489 kts 135°
2026-04-28 15:57 21.14034 115.33070 32933 ft 490 kts 135°
2026-04-28 15:58 21.09478 115.38491 32933 ft 490 kts 135°
2026-04-28 15:58 21.04923 115.43904 32932 ft 489 kts 135°
2026-04-28 15:59 21.01129 115.48409 32934 ft 489 kts 135°
2026-04-28 15:59 20.95800 115.54730 32933 ft 489 kts 135°
2026-04-28 16:00 20.91243 115.60131 32935 ft 489 kts 135°
2026-04-28 16:00 20.86686 115.65526 32931 ft 489 kts 135°
2026-04-28 16:01 20.82126 115.70918 32928 ft 489 kts 135°
2026-04-28 16:01 20.77571 115.76301 32929 ft 488 kts 135°
2026-04-28 16:02 20.73010 115.81684 32942 ft 489 kts 135°
2026-04-28 16:02 20.68448 115.87064 32935 ft 489 kts 135°
2026-04-28 16:03 20.63885 115.92439 32928 ft 488 kts 135°
2026-04-28 16:03 20.59318 115.97814 32938 ft 489 kts 135°
2026-04-28 16:04 20.54777 116.03150 34145 ft 474 kts 132°
2026-04-28 16:04 20.53325 116.04858 33996 ft 466 kts 132°
2026-04-28 16:04 20.51174 116.07386 33744 ft 458 kts 133°
2026-04-28 16:05 20.48336 116.10719 33429 ft 458 kts 133°
2026-04-28 16:05 20.46194 116.13232 33189 ft 458 kts 133°
2026-04-28 16:05 20.44050 116.15746 33003 ft 458 kts 133°
2026-04-28 16:05 20.41907 116.18259 32996 ft 459 kts 133°
2026-04-28 16:06 20.38329 116.22451 33004 ft 461 kts 133°
2026-04-28 16:06 20.34021 116.27495 33000 ft 460 kts 133°
2026-04-28 16:07 20.29710 116.32536 33001 ft 460 kts 133°
2026-04-28 16:08 20.23241 116.40095 32999 ft 460 kts 133°
2026-04-28 16:08 20.18924 116.45134 33000 ft 460 kts 133°
2026-04-28 16:09 20.12454 116.52678 33001 ft 460 kts 133°
2026-04-28 16:10 20.05982 116.60216 33001 ft 460 kts 133°
2026-04-28 16:10 19.99500 116.67750 33001 ft 460 kts 133°
2026-04-28 16:11 19.90887 116.77747 32999 ft 460 kts 133°
2026-04-28 16:12 19.84402 116.85264 33000 ft 460 kts 133°
2026-04-28 16:13 19.77915 116.92774 33001 ft 460 kts 133°
2026-04-28 16:14 19.69264 117.02774 33001 ft 460 kts 133°
2026-04-28 16:15 19.60604 117.12768 33001 ft 460 kts 133°
2026-04-28 16:15 19.56272 117.17760 33002 ft 460 kts 133°
2026-04-28 16:16 19.49773 117.25242 32999 ft 460 kts 133°
2026-04-28 16:17 19.43269 117.32720 33000 ft 460 kts 133°
2026-04-28 16:17 19.38960 117.37669 33001 ft 460 kts 133°
2026-04-28 16:18 19.34623 117.42646 33001 ft 460 kts 133°
2026-04-28 16:18 19.30288 117.47617 33000 ft 460 kts 133°
2026-04-28 16:19 19.25947 117.52590 33000 ft 460 kts 133°
2026-04-28 16:19 19.21603 117.57563 32999 ft 460 kts 133°
2026-04-28 16:20 19.17265 117.62524 33001 ft 460 kts 133°
2026-04-28 16:20 19.12922 117.67487 33001 ft 460 kts 133°
2026-04-28 16:21 19.08577 117.72450 33000 ft 460 kts 133°
2026-04-28 16:21 19.04231 117.77409 33001 ft 460 kts 133°
2026-04-28 16:22 18.99885 117.82361 33001 ft 460 kts 133°
2026-04-28 16:22 18.95535 117.87316 33002 ft 460 kts 133°
2026-04-28 16:23 18.91183 117.92267 33000 ft 460 kts 133°
2026-04-28 16:23 18.86836 117.97211 33001 ft 460 kts 133°
2026-04-28 16:24 18.82483 118.02157 33001 ft 460 kts 133°
2026-04-28 16:24 18.78131 118.07097 33000 ft 460 kts 133°
2026-04-28 16:25 18.73775 118.12038 33000 ft 460 kts 133°
2026-04-28 16:25 18.69423 118.16970 33002 ft 460 kts 133°
2026-04-28 16:26 18.65067 118.21903 33000 ft 459 kts 133°
2026-04-28 16:26 18.60707 118.26836 32999 ft 459 kts 133°
2026-04-28 16:27 18.56348 118.31764 33002 ft 459 kts 133°
2026-04-28 16:28 18.49840 118.39115 33001 ft 460 kts 133°
2026-04-28 16:28 18.45475 118.44041 32999 ft 459 kts 133°
2026-04-28 16:29 18.38932 118.51416 33001 ft 459 kts 133°
2026-04-28 16:30 18.32387 118.58785 33000 ft 459 kts 133°
2026-04-28 16:30 18.28017 118.63701 33000 ft 459 kts 133°
2026-04-28 16:31 18.23649 118.68609 33000 ft 459 kts 133°
2026-04-28 16:31 18.19282 118.73514 33000 ft 459 kts 133°
2026-04-28 16:32 18.14909 118.78421 33000 ft 459 kts 133°
2026-04-28 16:32 18.08352 118.85771 33001 ft 459 kts 133°
2026-04-28 16:33 18.04722 118.89838 33001 ft 459 kts 133°
2026-04-28 16:33 17.99521 118.95468 32972 ft 458 kts 143°
2026-04-28 16:34 17.94061 118.98872 32976 ft 459 kts 150°
2026-04-28 16:34 17.88531 119.02129 33001 ft 459 kts 151°
2026-04-28 16:35 17.82948 119.05371 33000 ft 458 kts 151°
2026-04-28 16:35 17.77363 119.08607 33000 ft 458 kts 151°
2026-04-28 16:36 17.71782 119.11837 33000 ft 458 kts 151°
2026-04-28 16:36 17.66192 119.15071 33001 ft 458 kts 151°
2026-04-28 16:37 17.60607 119.18300 33000 ft 458 kts 151°
2026-04-28 16:38 17.52234 119.23136 33000 ft 458 kts 151°
2026-04-28 16:38 17.46642 119.26363 33000 ft 458 kts 152°
2026-04-28 16:39 17.41055 119.29583 33002 ft 458 kts 151°
2026-04-28 16:39 17.35475 119.32799 33000 ft 458 kts 152°
2026-04-28 16:40 17.29886 119.36018 33000 ft 458 kts 151°
2026-04-28 16:40 17.24295 119.39234 33001 ft 458 kts 151°
2026-04-28 16:41 17.18708 119.42448 33000 ft 458 kts 152°
2026-04-28 16:41 17.13118 119.45661 33000 ft 458 kts 151°
2026-04-28 16:42 17.07535 119.48865 33000 ft 458 kts 151°
2026-04-28 16:42 17.01979 119.52052 33002 ft 458 kts 152°
2026-04-28 16:43 16.96396 119.55255 33001 ft 458 kts 151°
2026-04-28 16:43 16.90808 119.58457 33000 ft 458 kts 152°
2026-04-28 16:44 16.85212 119.61662 33000 ft 458 kts 152°
2026-04-28 16:44 16.79585 119.64881 32999 ft 458 kts 152°
2026-04-28 16:45 16.73995 119.68079 33000 ft 458 kts 152°
2026-04-28 16:45 16.68440 119.71252 33001 ft 458 kts 152°
2026-04-28 16:46 16.62848 119.74447 32999 ft 458 kts 152°
2026-04-28 16:46 16.57261 119.77636 33000 ft 458 kts 152°
2026-04-28 16:47 16.51674 119.80822 33002 ft 458 kts 152°
2026-04-28 16:47 16.46076 119.84013 32999 ft 458 kts 152°
2026-04-28 16:48 16.40478 119.87201 33000 ft 458 kts 152°
2026-04-28 16:48 16.34887 119.90383 32999 ft 458 kts 152°
2026-04-28 16:49 16.29295 119.93564 33001 ft 458 kts 152°
2026-04-28 16:49 16.23703 119.96743 33000 ft 458 kts 152°
2026-04-28 16:50 16.18113 119.99919 33001 ft 458 kts 152°
2026-04-28 16:50 16.12513 120.03098 33000 ft 458 kts 152°
2026-04-28 16:51 16.06922 120.06270 33000 ft 458 kts 152°
2026-04-28 16:51 16.01325 120.09444 33001 ft 458 kts 152°
2026-04-28 16:52 15.95728 120.12615 33000 ft 458 kts 152°
2026-04-28 16:52 15.90138 120.15780 33000 ft 458 kts 152°
2026-04-28 16:53 15.84548 120.18944 33000 ft 458 kts 152°
2026-04-28 16:53 15.78954 120.22108 33000 ft 458 kts 152°
2026-04-28 16:54 15.73358 120.25272 33001 ft 458 kts 152°
2026-04-28 16:54 15.68699 120.27903 33002 ft 458 kts 152°
2026-04-28 16:55 15.63107 120.31059 33000 ft 458 kts 152°
2026-04-28 16:55 15.57499 120.34222 33000 ft 458 kts 152°
2026-04-28 16:56 15.51912 120.37372 33000 ft 458 kts 152°
2026-04-28 16:56 15.46304 120.40532 33002 ft 458 kts 152°
2026-04-28 16:57 15.40710 120.43683 32999 ft 458 kts 152°
2026-04-28 16:57 15.35117 120.46830 33000 ft 458 kts 152°
2026-04-28 16:58 15.29516 120.49980 33000 ft 458 kts 152°
2026-04-28 16:58 15.23914 120.53129 33001 ft 458 kts 152°
2026-04-28 16:59 15.18354 120.56343 33103 ft 458 kts 146°
2026-04-28 16:59 15.15714 120.58194 33370 ft 458 kts 147°
2026-04-28 16:59 15.13060 120.60011 33577 ft 458 kts 147°
2026-04-28 16:59 15.10389 120.61821 33824 ft 458 kts 147°
2026-04-28 17:00 15.07760 120.63595 34054 ft 458 kts 147°
2026-04-28 17:00 15.05089 120.65394 34283 ft 457 kts 147°
2026-04-28 17:00 15.02420 120.67190 34506 ft 457 kts 147°
2026-04-28 17:00 14.99754 120.68984 34717 ft 457 kts 147°
2026-04-28 17:01 14.97091 120.70776 34921 ft 457 kts 147°
2026-04-28 17:01 14.91774 120.74384 35002 ft 457 kts 147°
2026-04-28 17:02 14.86477 120.77984 34998 ft 456 kts 147°
2026-04-28 17:02 14.81173 120.81587 34999 ft 456 kts 147°
2026-04-28 17:03 14.73227 120.86979 35001 ft 456 kts 147°
2026-04-28 17:03 14.67923 120.90575 35005 ft 456 kts 147°
2026-04-28 17:04 14.59973 120.95962 34999 ft 456 kts 147°
2026-04-28 17:05 14.52022 121.01364 35003 ft 456 kts 143°
2026-04-28 17:05 14.49735 121.03602 34998 ft 454 kts 129°
2026-04-28 17:06 14.45637 121.08599 35004 ft 457 kts 130°
2026-04-28 17:06 14.39546 121.16101 35004 ft 457 kts 130°
2026-04-28 17:07 14.35483 121.21125 35006 ft 457 kts 130°
2026-04-28 17:07 14.31409 121.26160 34995 ft 457 kts 130°
2026-04-28 17:08 14.27342 121.31183 34999 ft 457 kts 130°
2026-04-28 17:08 14.23265 121.36215 34994 ft 457 kts 130°
2026-04-28 17:09 14.19197 121.41233 35002 ft 457 kts 130°
2026-04-28 17:09 14.15116 121.46264 35008 ft 457 kts 130°
2026-04-28 17:10 14.11042 121.51283 35002 ft 457 kts 130°
2026-04-28 17:10 14.06964 121.56302 34997 ft 457 kts 130°
2026-04-28 17:11 14.02883 121.61323 34999 ft 457 kts 130°
2026-04-28 17:11 13.98808 121.66335 35001 ft 457 kts 130°
2026-04-28 17:12 13.94730 121.71345 35005 ft 457 kts 130°
2026-04-28 17:12 13.90648 121.76358 35005 ft 457 kts 130°
2026-04-28 17:13 13.86564 121.81370 34996 ft 457 kts 130°
2026-04-28 17:13 13.82482 121.86377 35007 ft 457 kts 130°
2026-04-28 17:14 13.78425 121.91351 35003 ft 457 kts 130°
2026-04-28 17:14 13.74338 121.96358 35001 ft 457 kts 130°
2026-04-28 17:15 13.70253 122.01360 35001 ft 457 kts 130°
2026-04-28 17:15 13.66163 122.06365 35003 ft 457 kts 130°
2026-04-28 17:16 13.62071 122.11369 34995 ft 457 kts 130°
2026-04-28 17:16 13.57985 122.16363 34998 ft 457 kts 130°
2026-04-28 17:17 13.53894 122.21361 35007 ft 457 kts 130°
2026-04-28 17:17 13.49796 122.26363 35002 ft 457 kts 130°
2026-04-28 17:18 13.45700 122.31361 35003 ft 457 kts 130°
2026-04-28 17:18 13.41612 122.36346 35000 ft 457 kts 130°
2026-04-28 17:19 13.37515 122.41339 35001 ft 457 kts 130°
2026-04-28 17:19 13.33415 122.46332 34993 ft 457 kts 130°
2026-04-28 17:20 13.30015 122.50471 35000 ft 457 kts 130°
2026-04-28 17:20 13.25222 122.56302 35003 ft 457 kts 130°
2026-04-28 17:21 13.21152 122.61251 35001 ft 457 kts 130°
2026-04-28 17:22 13.14999 122.68727 35000 ft 457 kts 130°
2026-04-28 17:22 13.10897 122.73707 35000 ft 457 kts 130°
2026-04-28 17:23 13.04743 122.81173 35002 ft 457 kts 130°
2026-04-28 17:23 13.00638 122.86150 35002 ft 457 kts 130°
2026-04-28 17:24 12.96532 122.91126 35002 ft 457 kts 130°
2026-04-28 17:24 12.92427 122.96097 35005 ft 457 kts 130°
2026-04-28 17:25 12.86267 123.03553 35001 ft 457 kts 130°
2026-04-28 17:26 12.82156 123.08524 35002 ft 457 kts 130°
2026-04-28 17:26 12.78049 123.13489 35003 ft 457 kts 130°
2026-04-28 17:27 12.73944 123.18447 35005 ft 457 kts 130°
2026-04-28 17:27 12.69826 123.23419 34996 ft 457 kts 130°
2026-04-28 17:28 12.65718 123.28377 35003 ft 457 kts 130°
2026-04-28 17:28 12.59569 123.35791 35002 ft 457 kts 130°
2026-04-28 17:29 12.55456 123.40749 35005 ft 457 kts 130°
2026-04-28 17:30 12.49260 123.48211 34997 ft 457 kts 130°
2026-04-28 17:30 12.43110 123.55611 35002 ft 457 kts 130°
2026-04-28 17:31 12.36946 123.63044 35001 ft 457 kts 130°
2026-04-28 17:32 12.30869 123.70562 34999 ft 457 kts 130°
2026-04-28 17:32 12.26816 123.75563 34993 ft 457 kts 130°
2026-04-28 17:33 12.22753 123.80574 34999 ft 457 kts 130°
2026-04-28 17:33 12.20040 123.83918 34996 ft 457 kts 130°
2026-04-28 17:34 12.14642 123.90570 34998 ft 457 kts 130°
2026-04-28 17:34 12.10585 123.95566 34999 ft 457 kts 130°
2026-04-28 17:35 12.06522 124.00565 35004 ft 457 kts 130°
2026-04-28 17:35 12.02459 124.05564 34997 ft 457 kts 130°
2026-04-28 17:36 11.98399 124.10555 35004 ft 457 kts 130°
2026-04-28 17:36 11.94342 124.15540 35003 ft 457 kts 130°
2026-04-28 17:37 11.90276 124.20535 35004 ft 457 kts 130°
2026-04-28 17:37 11.86237 124.25493 35000 ft 457 kts 130°
2026-04-28 17:38 11.82172 124.30483 35000 ft 457 kts 130°
2026-04-28 17:38 11.78107 124.35472 35006 ft 457 kts 130°
2026-04-28 17:39 11.74045 124.40454 34999 ft 457 kts 130°
2026-04-28 17:40 11.67944 124.47931 34999 ft 457 kts 130°
2026-04-28 17:40 11.63878 124.52911 35002 ft 457 kts 130°
2026-04-28 17:41 11.59813 124.57888 35002 ft 457 kts 130°
2026-04-28 17:41 11.55740 124.62872 35007 ft 457 kts 130°
2026-04-28 17:42 11.51670 124.67851 34997 ft 457 kts 130°
2026-04-28 17:42 11.47606 124.72818 35004 ft 457 kts 130°
2026-04-28 17:43 11.44221 124.76954 35001 ft 457 kts 130°
2026-04-28 17:43 11.40145 124.81932 35002 ft 457 kts 130°
2026-04-28 17:44 11.36078 124.86897 34994 ft 457 kts 130°
2026-04-28 17:44 11.32002 124.91869 34998 ft 457 kts 130°
2026-04-28 17:45 11.27927 124.96839 35000 ft 457 kts 130°
2026-04-28 17:45 11.23854 125.01799 35007 ft 457 kts 131°
2026-04-28 17:46 11.19271 125.06205 35001 ft 457 kts 138°
2026-04-28 17:46 11.14559 125.10546 35000 ft 456 kts 138°
2026-04-28 17:47 11.09847 125.14877 34996 ft 456 kts 138°
2026-04-28 17:47 11.05134 125.19206 35005 ft 456 kts 138°
2026-04-28 17:48 11.00427 125.23528 35007 ft 456 kts 138°
2026-04-28 17:48 10.95709 125.27859 35003 ft 456 kts 138°
2026-04-28 17:49 10.90987 125.32190 34999 ft 456 kts 138°
2026-04-28 17:49 10.86270 125.36516 35002 ft 456 kts 138°
2026-04-28 17:50 10.81552 125.40839 34996 ft 456 kts 138°
2026-04-28 17:50 10.76835 125.45161 35000 ft 456 kts 138°
2026-04-28 17:51 10.72114 125.49484 34994 ft 456 kts 138°
2026-04-28 17:51 10.67397 125.53802 35004 ft 456 kts 138°
2026-04-28 17:52 10.62681 125.58116 34996 ft 456 kts 138°
2026-04-28 17:52 10.55634 125.64560 35003 ft 456 kts 138°
2026-04-28 17:53 10.50911 125.68877 35000 ft 456 kts 138°
2026-04-28 17:53 10.46186 125.73194 35003 ft 456 kts 138°
2026-04-28 17:54 10.41469 125.77501 35004 ft 456 kts 138°
2026-04-28 17:54 10.36741 125.81816 35004 ft 456 kts 138°
2026-04-28 17:55 10.32024 125.86120 35002 ft 456 kts 138°
2026-04-28 17:55 10.27293 125.90435 34995 ft 456 kts 138°
2026-04-28 17:56 10.22568 125.94742 34999 ft 456 kts 138°
2026-04-28 17:56 10.17841 125.99050 35004 ft 456 kts 138°
2026-04-28 17:57 10.13118 126.03351 34995 ft 456 kts 138°
2026-04-28 17:57 10.08395 126.07652 35004 ft 456 kts 138°
2026-04-28 17:58 10.03668 126.11954 34996 ft 456 kts 138°
2026-04-28 17:58 9.98941 126.16254 34996 ft 456 kts 138°
2026-04-28 17:59 9.94214 126.20553 34996 ft 456 kts 138°
2026-04-28 17:59 9.89484 126.24853 34996 ft 456 kts 138°
2026-04-28 18:00 9.84756 126.29148 35005 ft 456 kts 138°
2026-04-28 18:00 9.80031 126.33440 34996 ft 456 kts 138°
2026-04-28 18:01 9.75330 126.37708 35006 ft 456 kts 138°
2026-04-28 18:01 9.70603 126.41998 34996 ft 456 kts 138°
2026-04-28 18:02 9.65870 126.46292 34999 ft 456 kts 138°
2026-04-28 18:02 9.61142 126.50579 35005 ft 456 kts 138°
2026-04-28 18:03 9.56411 126.54868 34999 ft 456 kts 139°
2026-04-28 18:03 9.51681 126.59154 34996 ft 456 kts 138°
2026-04-28 18:04 9.46949 126.63440 35005 ft 456 kts 139°
2026-04-28 18:04 9.42215 126.67726 34996 ft 456 kts 139°
2026-04-28 18:05 9.38283 126.71285 35002 ft 456 kts 139°
2026-04-28 18:05 9.32745 126.76296 35000 ft 456 kts 139°
2026-04-28 18:06 9.28016 126.80573 34996 ft 456 kts 139°
2026-04-28 18:06 9.23281 126.84853 35000 ft 456 kts 139°
2026-04-28 18:07 9.18545 126.89133 34996 ft 456 kts 139°
2026-04-28 18:07 9.13841 126.93382 34999 ft 456 kts 139°
2026-04-28 18:08 9.09102 126.97662 35001 ft 456 kts 139°
2026-04-28 18:08 9.04366 127.01937 35000 ft 456 kts 139°
2026-04-28 18:09 8.99630 127.06211 35001 ft 456 kts 139°
2026-04-28 18:09 8.94890 127.10486 35000 ft 456 kts 139°
2026-04-28 18:10 8.90152 127.14759 34996 ft 456 kts 139°
2026-04-28 18:10 8.85417 127.19027 35001 ft 456 kts 139°
2026-04-28 18:11 8.80674 127.23301 35003 ft 456 kts 139°
2026-04-28 18:11 8.75936 127.27568 35002 ft 456 kts 139°
2026-04-28 18:12 8.71196 127.31837 34999 ft 456 kts 139°
2026-04-28 18:12 8.66459 127.36100 34996 ft 456 kts 139°
2026-04-28 18:13 8.61716 127.40368 35006 ft 456 kts 139°
2026-04-28 18:13 8.56973 127.44634 34996 ft 456 kts 139°
2026-04-28 18:14 8.52263 127.48869 35004 ft 456 kts 139°
2026-04-28 18:14 8.47490 127.53159 35004 ft 456 kts 139°
2026-04-28 18:15 8.42749 127.57419 34996 ft 456 kts 139°
2026-04-28 18:15 8.38006 127.61680 35001 ft 456 kts 139°
2026-04-28 18:16 8.33265 127.65936 34999 ft 456 kts 139°
2026-04-28 18:16 8.28548 127.70171 34996 ft 456 kts 139°
2026-04-28 18:17 8.23805 127.74426 34996 ft 456 kts 139°
2026-04-28 18:17 8.19059 127.78683 35005 ft 456 kts 139°
2026-04-28 18:18 8.14316 127.82937 34996 ft 456 kts 139°
2026-04-28 18:18 8.10371 127.86473 34999 ft 456 kts 139°
2026-04-28 18:19 8.04825 127.91443 35003 ft 456 kts 139°
2026-04-28 18:19 8.00081 127.95693 34996 ft 456 kts 139°
2026-04-28 18:20 7.95337 127.99942 35002 ft 456 kts 139°
2026-04-28 18:20 7.90587 128.04195 35002 ft 456 kts 139°
2026-04-28 18:21 7.85843 128.08440 34999 ft 456 kts 139°
2026-04-28 18:21 7.81124 128.12662 34996 ft 456 kts 139°
2026-04-28 18:22 7.76377 128.16908 34996 ft 456 kts 139°
2026-04-28 18:22 7.71628 128.21154 34996 ft 456 kts 139°
2026-04-28 18:23 7.69253 128.23276 33530 ft 458 kts 138°
2026-04-28 18:23 7.66851 128.25424 33486 ft 465 kts 138°
2026-04-28 18:23 7.64429 128.27588 33700 ft 465 kts 138°
2026-04-28 18:23 7.62007 128.29753 33901 ft 466 kts 138°
2026-04-28 18:24 7.59580 128.31920 34083 ft 466 kts 138°
2026-04-28 18:24 7.57941 128.33384 34211 ft 466 kts 138°
2026-04-28 18:24 7.54726 128.36255 34475 ft 466 kts 138°
2026-04-28 18:24 7.52302 128.38420 34664 ft 466 kts 138°
2026-04-28 18:25 7.49876 128.40586 34831 ft 466 kts 138°
2026-04-28 18:25 7.47448 128.42753 34881 ft 467 kts 138°
2026-04-28 18:26 7.40173 128.49246 34873 ft 465 kts 138°
2026-04-28 18:26 7.35335 128.53561 34870 ft 465 kts 138°
2026-04-28 18:27 7.30496 128.57876 34869 ft 464 kts 138°
2026-04-28 18:27 7.25659 128.62188 34866 ft 464 kts 138°
2026-04-28 18:28 7.20826 128.66496 34867 ft 464 kts 138°
2026-04-28 18:28 7.15990 128.70804 34866 ft 464 kts 138°
2026-04-28 18:29 7.11159 128.75108 34865 ft 464 kts 138°
2026-04-28 18:29 7.06362 128.79379 34864 ft 463 kts 138°
2026-04-28 18:30 7.01539 128.83673 34865 ft 463 kts 138°
2026-04-28 18:30 6.96714 128.87966 34865 ft 463 kts 138°
2026-04-28 18:31 6.91889 128.92259 34863 ft 462 kts 138°
2026-04-28 18:31 6.87073 128.96543 34864 ft 462 kts 138°
2026-04-28 18:32 6.82258 129.00824 34862 ft 462 kts 138°
2026-04-28 18:32 6.77445 129.05103 34862 ft 462 kts 138°
2026-04-28 18:33 6.72634 129.09378 34864 ft 461 kts 138°
2026-04-28 18:33 6.67822 129.13653 34861 ft 461 kts 137°
2026-04-28 18:34 6.63012 129.17925 34865 ft 461 kts 137°
2026-04-28 18:34 6.59018 129.21472 34862 ft 461 kts 137°
2026-04-28 18:35 6.54216 129.25735 34861 ft 461 kts 137°
2026-04-28 18:35 6.49415 129.29996 34858 ft 460 kts 137°
2026-04-28 18:36 6.44618 129.34252 34857 ft 460 kts 137°
2026-04-28 18:36 6.39819 129.38509 34855 ft 460 kts 137°
2026-04-28 18:37 6.35025 129.42760 34856 ft 460 kts 137°
2026-04-28 18:37 6.30234 129.47008 34857 ft 459 kts 137°
2026-04-28 18:38 6.25444 129.51253 34856 ft 459 kts 137°
2026-04-28 18:38 6.20656 129.55496 34857 ft 459 kts 137°
2026-04-28 18:39 6.15864 129.59742 34858 ft 459 kts 137°
2026-04-28 18:39 6.11080 129.63979 34857 ft 458 kts 137°
2026-04-28 18:40 6.06297 129.68214 34859 ft 458 kts 137°
2026-04-28 18:40 6.01513 129.72449 34857 ft 458 kts 137°
2026-04-28 18:41 5.96730 129.76682 34856 ft 458 kts 137°
2026-04-28 18:41 5.91951 129.80911 34858 ft 458 kts 137°
2026-04-28 18:42 5.87168 129.85142 34857 ft 458 kts 137°
2026-04-28 18:42 5.82423 129.89338 34854 ft 456 kts 137°
2026-04-28 18:43 5.77690 129.93523 34853 ft 453 kts 137°
2026-04-28 18:43 5.72959 129.97705 34855 ft 453 kts 137°
2026-04-28 18:44 5.68227 130.01887 34850 ft 453 kts 137°
2026-04-28 18:44 5.61137 130.08152 34850 ft 453 kts 137°
2026-04-28 18:45 5.56411 130.12326 34849 ft 452 kts 137°
2026-04-28 18:45 5.51688 130.16497 34852 ft 452 kts 137°
2026-04-28 18:46 5.46966 130.20665 34850 ft 452 kts 137°
2026-04-28 18:46 5.42243 130.24835 34848 ft 452 kts 137°
2026-04-28 18:47 5.37528 130.28995 34851 ft 452 kts 137°
2026-04-28 18:47 5.32811 130.33158 34850 ft 451 kts 137°
2026-04-28 18:48 5.28093 130.37320 34849 ft 451 kts 137°
2026-04-28 18:48 5.23379 130.41477 34850 ft 451 kts 137°
2026-04-28 18:49 5.19460 130.44933 34853 ft 451 kts 137°
2026-04-28 18:49 5.13962 130.49781 34852 ft 450 kts 137°
2026-04-28 18:50 5.09286 130.53902 34853 ft 450 kts 137°
2026-04-28 18:50 5.04581 130.58048 34848 ft 450 kts 137°
2026-04-28 18:51 4.99875 130.62195 34848 ft 450 kts 137°
2026-04-28 18:51 4.95178 130.66332 34850 ft 450 kts 137°
2026-04-28 18:52 4.90475 130.70474 34848 ft 449 kts 137°
2026-04-28 18:52 4.85776 130.74612 34849 ft 450 kts 137°
2026-04-28 18:53 4.81078 130.78749 34847 ft 449 kts 137°
2026-04-28 18:53 4.76386 130.82878 34847 ft 449 kts 137°
2026-04-28 18:54 4.71688 130.87013 34850 ft 449 kts 137°
2026-04-28 18:54 4.66988 130.91149 34849 ft 449 kts 137°
2026-04-28 18:55 4.63078 130.94586 34850 ft 450 kts 136°
2026-04-28 18:55 4.57580 130.99421 34849 ft 450 kts 136°
2026-04-28 18:56 4.52863 131.03568 34850 ft 451 kts 136°
2026-04-28 18:56 4.48143 131.07718 34847 ft 452 kts 136°
2026-04-28 18:57 4.43450 131.11843 34851 ft 452 kts 136°
2026-04-28 18:57 4.38717 131.16002 34851 ft 453 kts 136°
2026-04-28 18:58 4.33982 131.20162 34849 ft 453 kts 136°
2026-04-28 18:58 4.29238 131.24330 34847 ft 454 kts 136°
2026-04-28 18:59 4.24485 131.28504 34848 ft 454 kts 136°
2026-04-28 18:59 4.19735 131.32676 34848 ft 454 kts 136°
2026-04-28 19:00 4.14978 131.36853 34846 ft 455 kts 136°
2026-04-28 19:00 4.10225 131.41026 34847 ft 455 kts 136°
2026-04-28 19:01 4.05463 131.45206 34849 ft 455 kts 136°
2026-04-28 19:01 4.00708 131.49381 34850 ft 455 kts 136°
2026-04-28 19:02 3.95988 131.53607 34848 ft 455 kts 136°
2026-04-28 19:02 3.91269 131.57826 34847 ft 455 kts 136°
2026-04-28 19:03 3.86586 131.62012 34847 ft 454 kts 136°
2026-04-28 19:03 3.81868 131.66228 34848 ft 454 kts 136°
2026-04-28 19:04 3.77156 131.70438 34849 ft 454 kts 136°
2026-04-28 19:04 3.72450 131.74642 34850 ft 453 kts 136°
2026-04-28 19:05 3.67741 131.78849 34848 ft 454 kts 136°
2026-04-28 19:05 3.63031 131.83054 34845 ft 454 kts 136°
2026-04-28 19:06 3.59113 131.86553 34844 ft 454 kts 136°
2026-04-28 19:06 3.53595 131.91480 34841 ft 455 kts 136°
2026-04-28 19:07 3.48871 131.95697 34843 ft 455 kts 136°
2026-04-28 19:07 3.44148 131.99913 34842 ft 455 kts 136°
2026-04-28 19:08 3.39417 132.04135 34845 ft 456 kts 136°
2026-04-28 19:08 3.34688 132.08355 34842 ft 456 kts 136°
2026-04-28 19:09 3.29954 132.12579 34843 ft 456 kts 136°
2026-04-28 19:09 3.25225 132.16797 34840 ft 455 kts 136°
2026-04-28 19:10 3.20498 132.21014 34841 ft 455 kts 136°
2026-04-28 19:10 3.15805 132.25199 34839 ft 455 kts 136°
2026-04-28 19:11 3.11088 132.29406 34841 ft 454 kts 136°
2026-04-28 19:11 3.06369 132.33613 34839 ft 454 kts 136°
2026-04-28 19:12 3.01651 132.37819 34840 ft 454 kts 136°
2026-04-28 19:12 2.96926 132.42031 34839 ft 455 kts 136°
2026-04-28 19:13 2.92208 132.46237 34840 ft 455 kts 136°
2026-04-28 19:13 2.87483 132.50447 34841 ft 455 kts 136°
2026-04-28 19:14 2.82757 132.54658 34842 ft 455 kts 136°
2026-04-28 19:14 2.78035 132.58865 34839 ft 456 kts 136°
2026-04-28 19:15 2.73296 132.63088 34841 ft 456 kts 136°
2026-04-28 19:15 2.69357 132.66597 34839 ft 456 kts 136°
2026-04-28 19:16 2.63822 132.71527 34837 ft 456 kts 136°
2026-04-28 19:16 2.59083 132.75748 34837 ft 456 kts 136°
2026-04-28 19:17 2.54373 132.79942 34839 ft 456 kts 136°
2026-04-28 19:17 2.49631 132.84164 34837 ft 457 kts 136°
2026-04-28 19:18 2.44887 132.88388 34839 ft 457 kts 136°
2026-04-28 19:18 2.40141 132.92613 34838 ft 457 kts 136°
2026-04-28 19:19 2.35393 132.96840 34837 ft 457 kts 136°
2026-04-28 19:19 2.30642 133.01068 34837 ft 457 kts 136°
2026-04-28 19:20 2.25881 133.05306 34835 ft 458 kts 136°
2026-04-28 19:20 2.21132 133.09532 34835 ft 458 kts 136°
2026-04-28 19:21 2.16364 133.13775 34839 ft 458 kts 136°
2026-04-28 19:21 2.11603 133.18011 34837 ft 458 kts 136°
2026-04-28 19:22 2.08417 133.20846 34838 ft 458 kts 136°
2026-04-28 19:22 2.02082 133.26482 34839 ft 458 kts 137°
2026-04-28 19:23 1.97299 133.30706 34838 ft 458 kts 137°
2026-04-28 19:23 1.92524 133.34915 34837 ft 458 kts 137°
2026-04-28 19:24 1.88544 133.38425 34839 ft 458 kts 137°
2026-04-28 19:24 1.82983 133.43328 34836 ft 458 kts 137°
2026-04-28 19:25 1.78981 133.46855 34839 ft 458 kts 137°
2026-04-28 19:25 1.74195 133.51075 34838 ft 458 kts 137°
2026-04-28 19:26 1.69421 133.55283 34836 ft 458 kts 137°
2026-04-28 19:26 1.64645 133.59492 34838 ft 457 kts 137°
2026-04-28 19:27 1.59872 133.63699 34837 ft 457 kts 137°
2026-04-28 19:27 1.55135 133.67874 34839 ft 457 kts 137°
2026-04-28 19:28 1.50365 133.72077 34838 ft 457 kts 137°
2026-04-28 19:28 1.45596 133.76279 34836 ft 457 kts 137°
2026-04-28 19:29 1.41607 133.79794 34837 ft 457 kts 137°
2026-04-28 19:29 1.36070 133.84673 34833 ft 457 kts 137°
2026-04-28 19:30 1.31303 133.88872 34835 ft 456 kts 137°
2026-04-28 19:30 1.26545 133.93065 34833 ft 456 kts 137°
2026-04-28 19:31 1.21782 133.97259 34838 ft 456 kts 137°
2026-04-28 19:31 1.17022 134.01453 34840 ft 456 kts 137°
2026-04-28 19:32 1.12261 134.05646 34838 ft 456 kts 137°
2026-04-28 19:32 1.07529 134.09815 34838 ft 456 kts 137°
2026-04-28 19:33 1.02733 134.14026 34872 ft 457 kts 137°
2026-04-28 19:33 0.98003 134.18200 34834 ft 456 kts 137°
2026-04-28 19:34 0.93208 134.22423 34837 ft 457 kts 138°
2026-04-28 19:34 0.88474 134.26592 34836 ft 457 kts 138°
2026-04-28 19:35 0.83676 134.30818 34837 ft 457 kts 138°
2026-04-28 19:35 0.78910 134.35016 34836 ft 456 kts 138°
2026-04-28 19:36 0.74259 134.39112 34836 ft 456 kts 138°
2026-04-28 19:36 0.69437 134.43356 34832 ft 456 kts 137°
2026-04-28 19:37 0.65449 134.46868 34834 ft 456 kts 138°
2026-04-28 19:37 0.59921 134.51736 34834 ft 456 kts 137°
2026-04-28 19:38 0.55167 134.55922 34836 ft 456 kts 138°
2026-04-28 19:38 0.50412 134.60108 34837 ft 456 kts 138°
2026-04-28 19:39 0.45652 134.64298 34838 ft 456 kts 137°
2026-04-28 19:39 0.40894 134.68487 34836 ft 456 kts 137°
2026-04-28 19:40 0.36131 134.72681 34838 ft 457 kts 137°
2026-04-28 19:40 0.31360 134.76881 34836 ft 457 kts 137°
2026-04-28 19:41 0.26590 134.81080 34832 ft 457 kts 137°
2026-04-28 19:41 0.21812 134.85287 34834 ft 457 kts 137°
2026-04-28 19:42 0.17049 134.89481 34834 ft 457 kts 137°
2026-04-28 19:42 0.13080 134.92975 34833 ft 457 kts 137°
2026-04-28 19:43 0.07543 134.97849 34835 ft 456 kts 137°
2026-04-28 19:43 0.02782 135.02041 34834 ft 456 kts 137°
2026-04-28 19:44 -0.01980 135.06234 34835 ft 457 kts 137°
2026-04-28 19:44 -0.06753 135.10435 34834 ft 457 kts 137°
2026-04-28 19:45 -0.11514 135.14627 34839 ft 457 kts 138°
2026-04-28 19:45 -0.16282 135.18824 34841 ft 457 kts 138°
2026-04-28 19:46 -0.21051 135.23023 34841 ft 457 kts 138°
2026-04-28 19:46 -0.25816 135.27219 34840 ft 457 kts 138°
2026-04-28 19:47 -0.30590 135.31421 34842 ft 457 kts 138°
2026-04-28 19:47 -0.35365 135.35624 34843 ft 457 kts 138°
2026-04-28 19:48 -0.40138 135.39827 34844 ft 458 kts 138°
2026-04-28 19:48 -0.44925 135.44041 34844 ft 459 kts 138°
2026-04-28 19:49 -0.49711 135.48255 34847 ft 459 kts 138°
2026-04-28 19:49 -0.54502 135.52472 34848 ft 459 kts 138°
2026-04-28 19:50 -0.61702 135.58813 34853 ft 461 kts 138°
2026-04-28 19:51 -0.66512 135.63048 34853 ft 460 kts 138°
2026-04-28 19:51 -0.71315 135.67277 34852 ft 460 kts 138°
2026-04-28 19:52 -0.76085 135.71478 34856 ft 460 kts 138°
2026-04-28 19:52 -0.80882 135.75703 34855 ft 459 kts 138°
2026-04-28 19:53 -0.85678 135.79924 34856 ft 460 kts 138°
2026-04-28 19:53 -0.90474 135.84149 34857 ft 459 kts 138°
2026-04-28 19:54 -0.95270 135.88373 34853 ft 459 kts 138°
2026-04-28 19:54 -1.00057 135.92587 34848 ft 459 kts 138°
2026-04-28 19:55 -1.04853 135.96812 34841 ft 459 kts 138°
2026-04-28 19:55 -1.09635 136.01024 34833 ft 458 kts 138°
2026-04-28 19:56 -1.14423 136.05241 34829 ft 458 kts 138°
2026-04-28 19:56 -1.19047 136.09585 34817 ft 455 kts 127°
2026-04-28 19:57 -1.22893 136.14617 34877 ft 457 kts 127°
2026-04-28 19:57 -1.24835 136.17131 35110 ft 456 kts 127°
2026-04-28 19:57 -1.26774 136.19640 35319 ft 456 kts 127°
2026-04-28 19:57 -1.28711 136.22146 35537 ft 456 kts 127°
2026-04-28 19:58 -1.30643 136.24646 35746 ft 456 kts 127°
2026-04-28 19:58 -1.32581 136.27154 35957 ft 456 kts 127°
2026-04-28 19:58 -1.34523 136.29666 36160 ft 455 kts 127°
2026-04-28 19:58 -1.36454 136.32165 36365 ft 455 kts 127°
2026-04-28 19:59 -1.38393 136.34673 36564 ft 455 kts 127°
2026-04-28 19:59 -1.40325 136.37173 36752 ft 455 kts 127°
2026-04-28 19:59 -1.42263 136.39681 36859 ft 456 kts 127°
2026-04-28 20:00 -1.46131 136.44686 36849 ft 454 kts 127°
2026-04-28 20:00 -1.49987 136.49676 36856 ft 454 kts 127°
2026-04-28 20:01 -1.53824 136.54643 36854 ft 454 kts 127°
2026-04-28 20:01 -1.57705 136.59665 36851 ft 454 kts 127°
2026-04-28 20:02 -1.61566 136.64664 36848 ft 454 kts 127°
2026-04-28 20:02 -1.65421 136.69654 36849 ft 454 kts 127°
2026-04-28 20:03 -1.69257 136.74620 36845 ft 454 kts 127°
2026-04-28 20:03 -1.73114 136.79614 36844 ft 454 kts 127°
2026-04-28 20:04 -1.76967 136.84604 36835 ft 454 kts 127°
2026-04-28 20:04 -1.80823 136.89594 36846 ft 453 kts 127°
2026-04-28 20:05 -1.84670 136.94576 36852 ft 453 kts 127°
2026-04-28 20:05 -1.88516 136.99558 36843 ft 452 kts 127°
2026-04-28 20:06 -1.92354 137.04530 36847 ft 452 kts 127°
2026-04-28 20:06 -1.96197 137.09507 36845 ft 452 kts 127°
2026-04-28 20:07 -2.00038 137.14481 36845 ft 452 kts 127°
2026-04-28 20:07 -2.03875 137.19455 36849 ft 451 kts 127°
2026-04-28 20:08 -2.07707 137.24419 36848 ft 451 kts 127°
2026-04-28 20:08 -2.11547 137.29396 36850 ft 451 kts 127°
2026-04-28 20:09 -2.15379 137.34362 36853 ft 451 kts 127°
2026-04-28 20:09 -2.19196 137.39309 36852 ft 451 kts 127°
2026-04-28 20:10 -2.23035 137.44285 36858 ft 451 kts 127°
2026-04-28 20:10 -2.26864 137.49247 36861 ft 451 kts 127°
2026-04-28 20:11 -2.30697 137.54217 36862 ft 451 kts 127°
2026-04-28 20:11 -2.33888 137.58353 36864 ft 451 kts 127°
2026-04-28 20:12 -2.37724 137.63327 36871 ft 452 kts 127°
2026-04-28 20:12 -2.41562 137.68305 36874 ft 452 kts 127°
2026-04-28 20:13 -2.46026 137.74093 36872 ft 452 kts 127°
2026-04-28 20:13 -2.49246 137.78270 36876 ft 452 kts 127°
2026-04-28 20:14 -2.53086 137.83252 36878 ft 452 kts 127°
2026-04-28 20:14 -2.56930 137.88238 36878 ft 452 kts 127°
2026-04-28 20:15 -2.60769 137.93219 36877 ft 452 kts 127°
2026-04-28 20:15 -2.64608 137.98200 36874 ft 452 kts 127°
2026-04-28 20:16 -2.68448 138.03183 36874 ft 452 kts 127°
2026-04-28 20:16 -2.72288 138.08168 36872 ft 452 kts 127°
2026-04-28 20:17 -2.76128 138.13152 36875 ft 452 kts 127°
2026-04-28 20:17 -2.79948 138.18110 36870 ft 453 kts 127°
2026-04-28 20:18 -2.83787 138.23095 36869 ft 452 kts 127°
2026-04-28 20:18 -2.87627 138.28082 36868 ft 453 kts 127°
2026-04-28 20:19 -2.91472 138.33075 36862 ft 453 kts 127°
2026-04-28 20:19 -2.95319 138.38072 36864 ft 453 kts 127°
2026-04-28 20:20 -2.99171 138.43075 36862 ft 454 kts 127°
2026-04-28 20:20 -3.03021 138.48077 36864 ft 454 kts 127°
2026-04-28 20:21 -3.06882 138.53093 36869 ft 455 kts 127°
2026-04-28 20:21 -3.10739 138.58106 36870 ft 455 kts 127°
2026-04-28 20:22 -3.14607 138.63133 36875 ft 456 kts 127°
2026-04-28 20:22 -3.18473 138.68158 36881 ft 456 kts 127°
2026-04-28 20:23 -3.22345 138.73192 36887 ft 456 kts 127°
2026-04-28 20:23 -3.26218 138.78228 36889 ft 457 kts 127°
2026-04-28 20:24 -3.30092 138.83265 36892 ft 457 kts 127°
2026-04-28 20:24 -3.33962 138.88298 36894 ft 457 kts 127°
2026-04-28 20:25 -3.37838 138.93340 36893 ft 457 kts 127°
2026-04-28 20:25 -3.41694 138.98348 36900 ft 457 kts 127°
2026-04-28 20:26 -3.45580 139.03388 36897 ft 457 kts 127°
2026-04-28 20:26 -3.49461 139.08422 36900 ft 457 kts 127°
2026-04-28 20:27 -3.53341 139.13455 36897 ft 457 kts 127°
2026-04-28 20:27 -3.57226 139.18495 36899 ft 457 kts 127°
2026-04-28 20:28 -3.61116 139.23543 36899 ft 458 kts 127°
2026-04-28 20:28 -3.65008 139.28594 36903 ft 458 kts 127°
2026-04-28 20:29 -3.68900 139.33646 36902 ft 459 kts 127°
2026-04-28 20:29 -3.72796 139.38702 36898 ft 459 kts 127°
2026-04-28 20:30 -3.76693 139.43765 36906 ft 459 kts 127°
2026-04-28 20:30 -3.80592 139.48827 36911 ft 459 kts 127°
2026-04-28 20:31 -3.84492 139.53894 36908 ft 459 kts 127°
2026-04-28 20:31 -3.88390 139.58957 36913 ft 459 kts 127°
2026-04-28 20:32 -3.92270 139.63998 36917 ft 459 kts 127°
2026-04-28 20:32 -3.96195 139.69100 36925 ft 459 kts 127°
2026-04-28 20:33 -4.00070 139.74137 36930 ft 459 kts 127°
2026-04-28 20:33 -4.03993 139.79236 36936 ft 459 kts 127°
2026-04-28 20:34 -4.07860 139.84263 36941 ft 458 kts 127°
2026-04-28 20:34 -4.11755 139.89330 36952 ft 459 kts 127°
2026-04-28 20:35 -4.15654 139.94400 36950 ft 459 kts 127°
2026-04-28 20:35 -4.19550 139.99469 36952 ft 459 kts 127°
2026-04-28 20:36 -4.23444 140.04535 36961 ft 459 kts 127°
2026-04-28 20:36 -4.27345 140.09612 36962 ft 460 kts 127°
2026-04-28 20:37 -4.31244 140.14688 36974 ft 460 kts 127°
2026-04-28 20:37 -4.35157 140.19782 36983 ft 460 kts 127°
2026-04-28 20:38 -4.39061 140.24866 36989 ft 460 kts 127°
2026-04-28 20:38 -4.42969 140.29955 36996 ft 461 kts 127°
2026-04-28 20:39 -4.46878 140.35048 36993 ft 461 kts 127°
2026-04-28 20:39 -4.50780 140.40131 37004 ft 461 kts 127°
2026-04-28 20:40 -4.54694 140.45232 37003 ft 461 kts 127°
2026-04-28 20:40 -4.58603 140.50327 36997 ft 461 kts 127°
2026-04-28 20:41 -4.62509 140.55418 36999 ft 461 kts 127°
2026-04-28 20:41 -4.66420 140.60518 36997 ft 461 kts 127°
2026-04-28 20:42 -4.70326 140.65614 36998 ft 461 kts 127°
2026-04-28 20:42 -4.74211 140.70682 36992 ft 461 kts 127°
2026-04-28 20:43 -4.78119 140.75781 36990 ft 461 kts 127°
2026-04-28 20:43 -4.82032 140.80887 36988 ft 461 kts 127°
2026-04-28 20:44 -4.85943 140.85991 36990 ft 461 kts 127°
2026-04-28 20:44 -4.89855 140.91098 37012 ft 462 kts 127°
2026-04-28 20:45 -4.93749 140.96183 37002 ft 461 kts 127°
2026-04-28 20:45 -4.97658 141.01303 36996 ft 462 kts 126°
2026-04-28 20:46 -5.01554 141.06425 37001 ft 462 kts 127°
2026-04-28 20:46 -5.05456 141.11554 37001 ft 462 kts 126°
2026-04-28 20:47 -5.09360 141.16687 37007 ft 463 kts 127°
2026-04-28 20:47 -5.13266 141.21824 37002 ft 463 kts 127°
2026-04-28 20:48 -5.17167 141.26954 37005 ft 463 kts 127°
2026-04-28 20:48 -5.21072 141.32092 37007 ft 463 kts 126°
2026-04-28 20:49 -5.24978 141.37232 37011 ft 463 kts 126°
2026-04-28 20:49 -5.28885 141.42373 37011 ft 463 kts 127°
2026-04-28 20:50 -5.32788 141.47513 37005 ft 463 kts 127°
2026-04-28 20:50 -5.36686 141.52646 37002 ft 462 kts 127°
2026-04-28 20:51 -5.40562 141.57752 36997 ft 462 kts 127°
2026-04-28 20:51 -5.44461 141.62888 36996 ft 462 kts 127°
2026-04-28 20:52 -5.48356 141.68021 36982 ft 462 kts 127°
2026-04-28 20:52 -5.52258 141.73164 36990 ft 463 kts 127°
2026-04-28 20:53 -5.58118 141.80890 36969 ft 464 kts 127°
2026-04-28 20:53 -5.62027 141.86046 36974 ft 465 kts 127°
2026-04-28 20:54 -5.65946 141.91216 36968 ft 465 kts 127°
2026-04-28 20:54 -5.69867 141.96389 36954 ft 466 kts 127°
2026-04-28 20:55 -5.73789 142.01566 36958 ft 466 kts 127°
2026-04-28 20:55 -5.77716 142.06751 36958 ft 466 kts 127°
2026-04-28 20:56 -5.81641 142.11935 36959 ft 467 kts 127°
2026-04-28 20:56 -5.85546 142.17091 36963 ft 467 kts 127°
2026-04-28 20:57 -5.89482 142.22276 36963 ft 466 kts 127°
2026-04-28 20:57 -5.93432 142.27466 36965 ft 466 kts 127°
2026-04-28 20:58 -5.97372 142.32642 36963 ft 466 kts 127°
2026-04-28 20:58 -6.01311 142.37820 36964 ft 466 kts 127°
2026-04-28 20:59 -6.05245 142.42992 36970 ft 466 kts 127°
2026-04-28 20:59 -6.09180 142.48167 36975 ft 466 kts 127°
2026-04-28 21:00 -6.13085 142.53303 36974 ft 466 kts 127°
2026-04-28 21:00 -6.17024 142.58486 36972 ft 466 kts 127°
2026-04-28 21:01 -6.20316 142.62819 36979 ft 466 kts 127°
2026-04-28 21:01 -6.24250 142.67998 36982 ft 466 kts 127°
2026-04-28 21:02 -6.28155 142.73140 36982 ft 466 kts 127°
2026-04-28 21:02 -6.32088 142.78320 36985 ft 466 kts 127°
2026-04-28 21:03 -6.36026 142.83508 36988 ft 467 kts 127°
2026-04-28 21:03 -6.39963 142.88697 36989 ft 467 kts 127°
2026-04-28 21:04 -6.43902 142.93890 36986 ft 467 kts 127°
2026-04-28 21:04 -6.47847 142.99092 36991 ft 467 kts 127°
2026-04-28 21:05 -6.51786 143.04288 36987 ft 467 kts 127°
2026-04-28 21:05 -6.55724 143.09484 36982 ft 467 kts 127°
2026-04-28 21:06 -6.59668 143.14690 36982 ft 467 kts 127°
2026-04-28 21:06 -6.63606 143.19888 36984 ft 467 kts 127°
2026-04-28 21:07 -6.67520 143.25057 36983 ft 468 kts 127°
2026-04-28 21:07 -6.71459 143.30261 36982 ft 467 kts 127°
2026-04-28 21:08 -6.75400 143.35468 36977 ft 468 kts 127°
2026-04-28 21:08 -6.79339 143.40675 36979 ft 468 kts 127°
2026-04-28 21:09 -6.83278 143.45884 36975 ft 468 kts 127°
2026-04-28 21:09 -6.87212 143.51087 36972 ft 468 kts 127°
2026-04-28 21:10 -6.91153 143.56301 36972 ft 468 kts 127°
2026-04-28 21:10 -6.95088 143.61509 36969 ft 468 kts 127°
2026-04-28 21:11 -6.99028 143.66724 36966 ft 468 kts 127°
2026-04-28 21:11 -7.02966 143.71939 36967 ft 468 kts 127°
2026-04-28 21:12 -7.06911 143.77165 36960 ft 468 kts 127°
2026-04-28 21:12 -7.10849 143.82384 36959 ft 468 kts 127°
2026-04-28 21:13 -7.14763 143.87572 36957 ft 468 kts 127°
2026-04-28 21:13 -7.18703 143.92795 36950 ft 469 kts 127°
2026-04-28 21:14 -7.22646 143.98026 36951 ft 469 kts 127°
2026-04-28 21:14 -7.26589 144.03258 36949 ft 469 kts 127°
2026-04-28 21:15 -7.30537 144.08497 36945 ft 469 kts 127°
2026-04-28 21:15 -7.34486 144.13739 36944 ft 470 kts 127°
2026-04-28 21:16 -7.38435 144.18983 36945 ft 470 kts 127°
2026-04-28 21:16 -7.42325 144.24274 36929 ft 470 kts 120°
2026-04-28 21:17 -7.43646 144.27264 36955 ft 467 kts 109°
2026-04-28 21:17 -7.44750 144.30353 36935 ft 470 kts 110°
2026-04-28 21:17 -7.46952 144.36549 36944 ft 470 kts 109°
2026-04-28 21:18 -7.49110 144.42703 36942 ft 469 kts 109°
2026-04-28 21:18 -7.51288 144.48910 36941 ft 469 kts 109°
2026-04-28 21:19 -7.53462 144.55112 36940 ft 469 kts 109°
2026-04-28 21:19 -7.55634 144.61311 36938 ft 469 kts 109°
2026-04-28 21:20 -7.57806 144.67512 36941 ft 469 kts 109°
2026-04-28 21:20 -7.59978 144.73717 36942 ft 469 kts 109°
2026-04-28 21:21 -7.62145 144.79909 36936 ft 469 kts 109°
2026-04-28 21:21 -7.64313 144.86108 36938 ft 469 kts 109°
2026-04-28 21:22 -7.66481 144.92314 36939 ft 469 kts 109°
2026-04-28 21:22 -7.68282 144.97466 36938 ft 469 kts 109°
2026-04-28 21:23 -7.70796 145.04667 36937 ft 469 kts 109°
2026-04-28 21:23 -7.72975 145.10910 36938 ft 469 kts 109°
2026-04-28 21:24 -7.75125 145.17074 36938 ft 469 kts 109°
2026-04-28 21:24 -7.77291 145.23287 36941 ft 469 kts 109°
2026-04-28 21:25 -7.79453 145.29491 36939 ft 469 kts 109°
2026-04-28 21:25 -7.81615 145.35698 36940 ft 469 kts 109°
2026-04-28 21:26 -7.83778 145.41912 36940 ft 469 kts 109°
2026-04-28 21:26 -7.85926 145.48085 36411 ft 462 kts 109°
2026-04-28 21:27 -7.86990 145.51145 35791 ft 462 kts 110°
2026-04-28 21:27 -7.88052 145.54202 35245 ft 461 kts 110°
2026-04-28 21:27 -7.89108 145.57239 34756 ft 458 kts 110°
2026-04-28 21:27 -7.90160 145.60266 34246 ft 456 kts 110°
2026-04-28 21:28 -7.91207 145.63280 33706 ft 455 kts 110°
2026-04-28 21:28 -7.92250 145.66281 33140 ft 453 kts 110°
2026-04-28 21:28 -7.93289 145.69273 32631 ft 450 kts 110°
2026-04-28 21:28 -7.94319 145.72240 32142 ft 447 kts 110°
2026-04-28 21:29 -7.95346 145.75201 31643 ft 445 kts 110°
2026-04-28 21:29 -7.96582 145.78043 31095 ft 443 kts 124°
2026-04-28 21:29 -7.98444 145.80506 30555 ft 440 kts 131°
2026-04-28 21:29 -8.00294 145.82957 30123 ft 438 kts 129°
2026-04-28 21:30 -8.02124 145.85398 29619 ft 435 kts 129°
2026-04-28 21:30 -8.03955 145.87810 29105 ft 432 kts 129°
2026-04-28 21:30 -8.05788 145.90207 28638 ft 429 kts 129°
2026-04-28 21:30 -8.07609 145.92578 28184 ft 426 kts 129°
2026-04-28 21:31 -8.09418 145.94931 27738 ft 422 kts 129°
2026-04-28 21:31 -8.11212 145.97264 27296 ft 419 kts 129°
2026-04-28 21:31 -8.12992 145.99578 26859 ft 417 kts 129°
2026-04-28 21:31 -8.14764 146.01883 26417 ft 414 kts 129°
2026-04-28 21:32 -8.16524 146.04171 25998 ft 410 kts 129°
2026-04-28 21:32 -8.18074 146.06188 25624 ft 400 kts 129°
2026-04-28 21:32 -8.19755 146.08377 25211 ft 389 kts 129°
2026-04-28 21:32 -8.21396 146.10511 24839 ft 380 kts 129°
2026-04-28 21:33 -8.22993 146.12591 24460 ft 370 kts 130°
2026-04-28 21:33 -8.24554 146.14622 24091 ft 361 kts 129°
2026-04-28 21:33 -8.26074 146.16600 23725 ft 353 kts 129°
2026-04-28 21:33 -8.27576 146.18556 23343 ft 355 kts 129°
2026-04-28 21:34 -8.29096 146.20533 22906 ft 359 kts 129°
2026-04-28 21:34 -8.30635 146.22538 22532 ft 362 kts 129°
2026-04-28 21:34 -8.32181 146.24552 22169 ft 362 kts 129°
2026-04-28 21:34 -8.33721 146.26559 21812 ft 361 kts 129°
2026-04-28 21:35 -8.35256 146.28561 21451 ft 360 kts 129°
2026-04-28 21:35 -8.36789 146.30558 21086 ft 359 kts 129°
2026-04-28 21:35 -8.38312 146.32542 20728 ft 357 kts 129°
2026-04-28 21:35 -8.39831 146.34521 20364 ft 356 kts 129°
2026-04-28 21:36 -8.41345 146.36496 19963 ft 356 kts 129°
2026-04-28 21:36 -8.42863 146.38476 19585 ft 356 kts 129°
2026-04-28 21:36 -8.44375 146.40447 19250 ft 354 kts 128°
2026-04-28 21:36 -8.45883 146.42414 18895 ft 353 kts 128°
2026-04-28 21:37 -8.47387 146.44376 18540 ft 353 kts 128°
2026-04-28 21:37 -8.48888 146.46334 18184 ft 352 kts 128°
2026-04-28 21:37 -8.50384 146.48286 17809 ft 350 kts 128°
2026-04-28 21:37 -8.51869 146.50224 17451 ft 348 kts 128°
2026-04-28 21:38 -8.53347 146.52153 17096 ft 346 kts 128°
2026-04-28 21:38 -8.54816 146.54071 16754 ft 344 kts 128°
2026-04-28 21:38 -8.56274 146.55976 16396 ft 342 kts 128°
2026-04-28 21:38 -8.57730 146.57877 16051 ft 340 kts 128°
2026-04-28 21:39 -8.59173 146.59761 15701 ft 339 kts 128°
2026-04-28 21:39 -8.60611 146.61638 15361 ft 337 kts 128°
2026-04-28 21:39 -8.62043 146.63510 15017 ft 336 kts 128°
2026-04-28 21:39 -8.63471 146.65375 14675 ft 335 kts 128°
2026-04-28 21:40 -8.64893 146.67233 14332 ft 333 kts 128°
2026-04-28 21:40 -8.66306 146.69081 13992 ft 332 kts 128°
2026-04-28 21:40 -8.67718 146.70926 13627 ft 331 kts 128°
2026-04-28 21:40 -8.69126 146.72766 13256 ft 330 kts 128°
2026-04-28 21:41 -8.70646 146.74482 12871 ft 328 kts 143°
2026-04-28 21:41 -8.72549 146.75742 12524 ft 326 kts 147°
2026-04-28 21:41 -8.74424 146.76998 12203 ft 323 kts 147°
2026-04-28 21:41 -8.76290 146.78244 11876 ft 320 kts 147°
2026-04-28 21:42 -8.78147 146.79477 11550 ft 318 kts 147°
2026-04-28 21:42 -8.79992 146.80699 11222 ft 316 kts 147°
2026-04-28 21:42 -8.81826 146.81912 10894 ft 314 kts 147°
2026-04-28 21:42 -8.83648 146.83117 10566 ft 313 kts 147°
2026-04-28 21:43 -8.85465 146.84318 10271 ft 310 kts 147°
2026-04-28 21:43 -8.87251 146.85500 10118 ft 303 kts 147°
2026-04-28 21:43 -8.89009 146.86663 9808 ft 301 kts 147°
2026-04-28 21:43 -8.90759 146.87821 9458 ft 300 kts 147°
2026-04-28 21:44 -8.92503 146.88973 9129 ft 299 kts 147°
2026-04-28 21:44 -8.94243 146.90125 8798 ft 298 kts 147°
2026-04-28 21:44 -8.95968 146.91267 8486 ft 296 kts 147°
2026-04-28 21:44 -8.97680 146.92400 8160 ft 291 kts 147°
2026-04-28 21:45 -8.99344 146.93501 7865 ft 281 kts 147°
2026-04-28 21:45 -9.00949 146.94564 7566 ft 271 kts 147°
2026-04-28 21:45 -9.02501 146.95591 7271 ft 262 kts 147°
2026-04-28 21:45 -9.04012 146.96592 6979 ft 260 kts 147°
2026-04-28 21:46 -9.05527 146.97595 6687 ft 267 kts 147°
2026-04-28 21:46 -9.07095 146.98634 6406 ft 270 kts 147°
2026-04-28 21:46 -9.08663 146.99672 6106 ft 269 kts 147°
2026-04-28 21:46 -9.10189 147.00776 5819 ft 270 kts 144°
2026-04-28 21:47 -9.11723 147.01867 5516 ft 269 kts 146°
2026-04-28 21:47 -9.13252 147.02893 5225 ft 268 kts 147°
2026-04-28 21:47 -9.14855 147.03925 4927 ft 267 kts 148°
2026-04-28 21:47 -9.16428 147.04915 4644 ft 266 kts 148°
2026-04-28 21:48 -9.17997 147.05892 4346 ft 264 kts 148°
2026-04-28 21:48 -9.19550 147.06853 4153 ft 259 kts 148°
2026-04-28 21:48 -9.21066 147.07791 4022 ft 252 kts 148°
2026-04-28 21:48 -9.22539 147.08700 3880 ft 244 kts 148°
2026-04-28 21:49 -9.23968 147.09583 3767 ft 236 kts 148°
2026-04-28 21:49 -9.25346 147.10434 3632 ft 229 kts 148°
2026-04-28 21:49 -9.26691 147.11264 3475 ft 223 kts 148°
2026-04-28 21:49 -9.27996 147.12070 3325 ft 217 kts 148°
2026-04-28 21:50 -9.28836 147.12589 3206 ft 212 kts 148°
2026-04-28 21:50 -9.30083 147.13363 3021 ft 207 kts 148°
2026-04-28 21:50 -9.31296 147.14111 2725 ft 200 kts 148°
2026-04-28 21:50 -9.32435 147.14811 2551 ft 182 kts 148°
2026-04-28 21:51 -9.33466 147.15453 2285 ft 164 kts 148°
2026-04-28 21:51 -9.34396 147.16025 2145 ft 153 kts 148°
2026-04-28 21:51 -9.35297 147.16585 1904 ft 151 kts 147°
2026-04-28 21:51 -9.36189 147.17138 1705 ft 149 kts 149°
2026-04-28 21:52 -9.37074 147.17678 1484 ft 148 kts 148°
2026-04-28 21:52 -9.37959 147.18225 1307 ft 149 kts 148°
2026-04-28 21:52 -9.38850 147.18768 1103 ft 149 kts 149°
2026-04-28 21:52 -9.39728 147.19313 933 ft 148 kts 149°
2026-04-28 21:53 -9.40611 147.19855 711 ft 150 kts 149°
2026-04-28 21:53 -9.41492 147.20401 508 ft 148 kts 149°
2026-04-28 21:53 -9.42383 147.20957 317 ft 151 kts 149°
2026-04-28 21:53 -9.43273 147.21507 138 ft 145 kts 149°
2026-04-28 21:54 -9.43980 147.21941 131 ft 85 kts 148°
2026-04-28 21:54 -9.44320 147.22152 132 ft 37 kts 148°
2026-04-28 21:54 -9.44470 147.22216 130 ft 16 kts 207°
2026-04-28 21:54 -9.44534 147.22117 127 ft 18 kts 239°
2026-04-28 21:55 -9.44606 147.22002 128 ft 20 kts 238°
2026-04-28 21:55 -9.44633 147.21880 128 ft 18 kts 323°
2026-04-28 21:55 -9.44517 147.21813 129 ft 20 kts 328°
2026-04-28 21:55 -9.44393 147.21736 128 ft 22 kts 329°
2026-04-28 21:56 -9.44257 147.21651 128 ft 24 kts 329°
2026-04-28 21:56 -9.44108 147.21561 129 ft 26 kts 328°
2026-04-28 21:56 -9.43951 147.21463 129 ft 27 kts 328°
2026-04-28 21:56 -9.43848 147.21381 125 ft 15 kts 286°
2026-04-28 21:57 -9.43849 147.21303 127 ft 11 kts 303°
2026-04-28 21:57 -9.43802 147.21270 129 ft 2 kts 331°
2026-04-28 21:57 -9.43788 147.21256 126 ft 4 kts 300°
2026-04-28 21:57 -9.43791 147.21226 126 ft 5 kts 246°
2026-04-28 21:58 -9.43807 147.21201 129 ft 1 kts 237°
2026-04-28 21:58 -9.43817 147.21185 125 ft 4 kts 237°
2026-04-28 21:58 -9.43819 147.21182 130 ft 0 kts 237°